Home   Weather   Thun   Past weeks

Flag for Switzerland Past Weather in Thun, Bern, Switzerland — Yesterday and Last 2 Weeks

Now
19 °F

Light fog.


Feels Like: 19 °F
Forecast: 32 / 53 °F
Wind: 2 mph from Southeast

Location: Bern / Belp

Current Time: Dec 9, 2016 at 8:45:46 am

Latest Report: Dec 9, 2016 at 8:20 am


Visibility: N/A

Pressure: 30.54 "Hg (28.43 "Hg at 557m altitude)

Humidity: 93%

Dew Point: 18 °F

Location of ThunLocation

Past Weather in Thun — Graph

°F

Thun Temperature Yesterday

Maximum temperature yesterday: 43 °F (at 2:20 pm)
Minimum temperature yesterday: 23 °F (at 7:50 am)
Average temperature yesterday: 29 °F

High & Low Weather Summary for the Past Weeks

 TemperatureHumidityPressure
High50 °F (Nov 24, 1:20 pm)100% (Nov 24, 7:20 am)30.63 "Hg (Nov 24, 7:20 am)
Low19 °F (Dec 1, 7:20 am)53% (Dec 1, 2:20 pm)29.77 "Hg (Nov 25, 4:50 am)
Average33 °F90%30.24 "Hg
* Reported Nov 24 7:20 am — Dec 9 7:20 am, Thun, Weather by CustomWeather, © 2016

Note: Actual official high and low records may vary slightly from our data, if they occured in-between our weather recording intervals... More about our weather records

Advertising

Thun Weather History for the Previous 24 Hours

Scroll right to see more
 ConditionsComfort  
Time TempWeatherWind HumidityBarometerVisibility
7:20 am
Fri, Dec 9
19 °FFog.No wind93%30.54 "Hg4 mi
6:50 am19 °FClear.No wind93%30.54 "Hg4 mi
6:20 am21 °FFog.No wind93%30.54 "Hg4 mi
5:20 am21 °FIce fog.1 mph93%30.54 "Hg2 mi
4:50 am21 °FLight fog.2 mph100%30.54 "Hg1 mi
4:20 am21 °FIce fog.1 mph100%30.54 "Hg1 mi
3:50 am21 °FIce fog.1 mph93%30.54 "Hg0 mi
3:20 am21 °FIce fog.1 mph93%30.54 "Hg0 mi
2:50 am21 °FIce fog.1 mph100%30.54 "Hg0 mi
2:20 am23 °FIce fog.1 mph93%30.54 "Hg0 mi
1:50 am23 °FIce fog.1 mph93%30.54 "Hg1 mi
1:20 am23 °FIce fog.2 mph93%30.54 "Hg0 mi
12:50 am23 °FIce fog.3 mph93%30.54 "Hg1 mi
12:20 am25 °FIce fog.1 mph93%30.54 "Hg0 mi
11:50 pm
Thu, Dec 8
25 °FIce fog.2 mph100%30.57 "Hg0 mi
11:20 pm27 °FIce fog.1 mph93%30.57 "Hg0 mi
10:50 pm27 °FIce fog.2 mph100%30.54 "Hg0 mi
10:20 pm27 °FIce fog.1 mph100%30.54 "Hg0 mi
9:50 pm28 °FIce fog.3 mph100%30.54 "Hg0 mi
9:20 pm28 °FIce fog.2 mph100%30.54 "Hg0 mi
8:50 pm28 °FIce fog.1 mph100%30.54 "Hg0 mi
8:20 pm30 °FIce fog.2 mph100%30.54 "Hg1 mi
7:50 pm30 °FIce fog.6 mph100%30.54 "Hg1 mi
7:20 pm30 °FIce fog.6 mph93%30.54 "Hg1 mi
6:50 pm32 °FPassing clouds.8 mph93%30.54 "Hg4 mi
6:20 pm32 °FClear.6 mph93%30.54 "Hg10 mi
5:50 pm32 °FClear.1 mph87%30.51 "Hg10 mi
5:20 pm32 °FPassing clouds.2 mph87%30.51 "HgN/A
4:50 pm34 °FPassing clouds.5 mph81%30.51 "HgN/A
4:20 pm36 °FPassing clouds.5 mph81%30.51 "HgN/A
3:50 pm39 °FPassing clouds.3 mph65%30.51 "HgN/A
3:20 pm43 °FSunny.1 mph61%30.51 "Hg10 mi
2:50 pm41 °FSunny.2 mph66%30.51 "Hg10 mi
2:20 pm43 °FSunny.2 mph66%30.51 "Hg10 mi
1:50 pm39 °FSunny.No wind70%30.54 "Hg10 mi
1:20 pm39 °FSunny.3 mph81%30.54 "Hg10 mi
12:50 pm36 °FSunny.2 mph93%30.57 "Hg10 mi
12:20 pm32 °FSunny.1 mph100%30.57 "Hg10 mi
11:50 am30 °FPassing clouds.2 mph93%30.60 "HgN/A
11:20 am28 °FPassing clouds.2 mph93%30.60 "HgN/A
10:50 am27 °FPassing clouds.1 mph93%30.60 "Hg4 mi
10:20 am25 °FIce fog.1 mph100%30.60 "Hg1 mi
9:50 am25 °FIce fog.2 mph93%30.63 "Hg1 mi
9:20 am23 °FSnow. Ice fog.1 mph100%30.63 "Hg1 mi
8:50 am23 °FIce fog.2 mph93%30.60 "Hg1 mi
8:20 am23 °FIce fog.2 mph100%30.60 "Hg1 mi
Weather by CustomWeather, © 2016

See weather overviewHow to use our weather pages